Location: Hernandez
(10.3704°N, 67.2181°W)
Time: 05:26:45
(UTC+00:00)

COSMOS 2406 - Pass Details

Date: 13 April 2024
Orbit: 843 x 862 km, 71.0° (Epoch: 25 May)

Event Time Altitude Azimuth Distance (km) Brightness Sun altitude
Rises 23:12:19 0° 359° (N) 3,425 6.5 -8.7°
Reaches altitude 10° 23:15:00 10° 9° (N) 2,487 5.7 -9.4°
Maximum altitude 23:20:07 34° 72° (ENE) 1,386 3.9 -10.6°
Drops below altitude 10° 23:25:12 10° 136° (SE) 2,477 5.1 -11.8°
Enters shadow 23:25:23 - 137° (SE) 2,537 5.2 -11.9°
